,,,PA_Meas_PMT16A,,PR_Meas_QMR101_102,,RH_Meas_QMH101,,SR_Meas_QMS101,,TA_Meas_QMH101,,GenWind,,GenWind,
date,time,status,PA,status,PR,status,RH,status,SR,status,TA,status,DirAvg,status,SpdAvg,
2009-11-26, 00:00:04,VALID,1002.32,VALID,0,VALID,91.8288,VALID,0,VALID,24.5193,VALID,51,VALID,0.312891,
2009-11-26, 00:01:04,VALID,1002.32,VALID,0,VALID,91.6457,VALID,0,VALID,24.4998,VALID,51,VALID,0.432422,
2009-11-26, 00:02:04,VALID,1002.34,VALID,0,VALID,91.5695,VALID,0,VALID,24.4822,VALID,51,VALID,0.389062,
2009-11-26, 00:03:04,VALID,1002.35,VALID,0,VALID,91.5847,VALID,0,VALID,24.4414,VALID,51,VALID,0.477734,
2009-11-26, 00:04:04,VALID,1002.34,VALID,0,VALID,91.6534,VALID,0,VALID,24.4414,VALID,51,VALID,0.281641,
2009-11-26, 00:05:04,VALID,1002.31,VALID,0,VALID,91.7449,VALID,0,VALID,24.422,VALID,51,VALID,0.255859,
2009-11-26, 00:06:04,VALID,1002.32,VALID,0,VALID,91.7983,VALID,0,VALID,24.4025,VALID,51,VALID,0.151562,
2009-11-26, 00:07:04,VALID,1002.31,VALID,0,VALID,91.8746,VALID,0,VALID,24.383,VALID,51,VALID,0.096875,
2009-11-26, 00:08:04,VALID,1002.31,VALID,0,VALID,91.8975,VALID,0,VALID,24.383,VALID,51,VALID,0.217578,
2009-11-26, 00:09:04,VALID,1002.28,VALID,0,VALID,91.9128,VALID,0,VALID,24.3441,VALID,51,VALID,0.328906,
2009-11-26, 00:10:04,VALID,1002.26,VALID,0,VALID,91.9814,VALID,0,VALID,24.2839,VALID,51,VALID,0.239063,
2009-11-26, 00:11:04,VALID,1002.28,VALID,0,VALID,92.0958,VALID,0.100563,VALID,24.2857,VALID,51,VALID,0.294922,
2009-11-26, 00:12:04,VALID,1002.26,VALID,0,VALID,92.1569,VALID,0,VALID,24.2857,VALID,51,VALID,0.147266,
2009-11-26, 00:13:04,VALID,1002.25,VALID,0,VALID,92.2408,VALID,0,VALID,24.2662,VALID,51,VALID,0.184766,
2009-11-26, 00:14:04,VALID,1002.21,VALID,0,VALID,92.3171,VALID,0,VALID,24.2681,VALID,51,VALID,0.155469,
2009-11-26, 00:15:04,VALID,1002.2,VALID,0,VALID,92.3476,VALID,0,VALID,24.2273,VALID,51,VALID,0.29375,
2009-11-26, 00:16:04,VALID,1002.2,VALID,0,VALID,92.3552,VALID,0,VALID,24.2273,VALID,51,VALID,0.408594,
2009-11-26, 00:17:04,VALID,1002.2,VALID,0,VALID,92.4773,VALID,0,VALID,24.2468,VALID,51,VALID,0.329688,
2009-11-26, 00:18:04,VALID,1002.18,VALID,0,VALID,92.5307,VALID,0,VALID,24.2468,VALID,51,VALID,0.347656,
2009-11-26, 00:19:04,VALID,1002.14,VALID,0,VALID,92.5231,VALID,0,VALID,24.2468,VALID,51,VALID,0.387109,
2009-11-26, 00:20:04,VALID,1002.13,VALID,0,VALID,92.5383,VALID,0,VALID,24.2468,VALID,51,VALID,0.40625,
2009-11-26, 00:21:04,VALID,1002.14,VALID,0,VALID,92.5688,VALID,0,VALID,24.2662,VALID,51,VALID,0.539453,
2009-11-26, 00:22:04,VALID,1002.08,VALID,0,VALID,92.5993,VALID,0,VALID,24.2662,VALID,51,VALID,0.424609,
2009-11-26, 00:23:04,VALID,1002.1,VALID,0,VALID,92.5688,VALID,0,VALID,24.2857,VALID,44,VALID,0.484375,
2009-11-26, 00:24:04,VALID,1002.06,VALID,0,VALID,92.3476,VALID,0,VALID,24.2662,VALID,44,VALID,0.434375,
2009-11-26, 00:25:04,VALID,1002.08,VALID,0,VALID,92.2332,VALID,0,VALID,24.2662,VALID,41,VALID,0.472656,
2009-11-26, 00:26:04,VALID,1002.06,VALID,0,VALID,92.134,VALID,0,VALID,24.2273,VALID,32,VALID,0.565625,
2009-11-26, 00:27:04,VALID,1002.09,VALID,0,VALID,92.195,VALID,0,VALID,24.2078,VALID,31,VALID,0.292578,
2009-11-26, 00:28:04,VALID,1002.09,VALID,0,VALID,92.3552,VALID,0.100563,VALID,24.1884,VALID,31,VALID,0.203125,
2009-11-26, 00:29:04,VALID,1002.1,VALID,0,VALID,92.4086,VALID,0,VALID,24.1689,VALID,31,VALID,0.26875,
2009-11-26, 00:30:04,VALID,1002.08,VALID,0,VALID,92.5307,VALID,0,VALID,24.1494,VALID,31,VALID,0.256641,
2009-11-26, 00:31:04,VALID,1002.09,VALID,0,VALID,92.6299,VALID,0.100563,VALID,24.1494,VALID,31,VALID,0.284766,
2009-11-26, 00:32:04,VALID,1002.07,VALID,0,VALID,92.6985,VALID,0,VALID,24.1707,VALID,31,VALID,0.301172,
2009-11-26, 00:33:04,VALID,1002.02,VALID,0,VALID,92.7596,VALID,0,VALID,24.1707,VALID,31,VALID,0.419531,
2009-11-26, 00:34:04,VALID,1002.01,VALID,0,VALID,92.7901,VALID,0,VALID,24.1494,VALID,31,VALID,0.471094,
2009-11-26, 00:35:04,VALID,1001.98,VALID,0,VALID,92.7977,VALID,0,VALID,24.1494,VALID,31,VALID,0.291016,
2009-11-26, 00:36:04,VALID,1001.99,VALID,0,VALID,92.813,VALID,0,VALID,24.1494,VALID,31,VALID,0.425,
2009-11-26, 00:37:04,VALID,1001.98,VALID,0,VALID,92.8053,VALID,0,VALID,24.1513,VALID,31,VALID,0.482812,
2009-11-26, 00:38:04,VALID,1001.95,VALID,0,VALID,92.7367,VALID,0,VALID,24.1494,VALID,31,VALID,0.347656,
2009-11-26, 00:39:04,VALID,1001.94,VALID,0,VALID,92.729,VALID,0,VALID,24.13,VALID,31,VALID,0.324219,
2009-11-26, 00:40:04,VALID,1001.94,VALID,0,VALID,92.813,VALID,0,VALID,24.1513,VALID,31,VALID,0.410156,
2009-11-26, 00:41:04,VALID,1001.92,VALID,0,VALID,92.9045,VALID,0,VALID,24.13,VALID,31,VALID,0.451953,
2009-11-26, 00:42:04,VALID,1001.87,VALID,0,VALID,93.0418,VALID,0,VALID,24.1494,VALID,17,VALID,0.577344,
2009-11-26, 00:43:04,VALID,1001.86,VALID,0,VALID,93.1257,VALID,0.100563,VALID,24.1689,VALID,17,VALID,0.469922,
2009-11-26, 00:44:04,VALID,1001.89,VALID,0,VALID,93.1334,VALID,0,VALID,24.1494,VALID,17,VALID,0.389062,
2009-11-26, 00:45:04,VALID,1001.87,VALID,0,VALID,93.1791,VALID,0,VALID,24.1513,VALID,17,VALID,0.41875,
2009-11-26, 00:46:04,VALID,1001.89,VALID,0,VALID,93.1791,VALID,0,VALID,24.1689,VALID,17,VALID,0.192188,
2009-11-26, 00:47:04,VALID,1001.89,VALID,0,VALID,93.1715,VALID,0,VALID,24.13,VALID,17,VALID,0.0648438,
2009-11-26, 00:48:04,VALID,1001.89,VALID,0,VALID,93.1715,VALID,0,VALID,24.1494,VALID,17,VALID,0,
2009-11-26, 00:49:04,VALID,1001.89,VALID,0,VALID,93.1868,VALID,0,VALID,24.1494,VALID,17,VALID,0.257422,
2009-11-26, 00:50:04,VALID,1001.87,VALID,0,VALID,93.1563,VALID,0,VALID,24.1513,VALID,17,VALID,0.205078,
2009-11-26, 00:51:04,VALID,1001.84,VALID,0,VALID,93.1257,VALID,0.100563,VALID,24.13,VALID,17,VALID,0.353125,
2009-11-26, 00:52:04,VALID,1001.81,VALID,0,VALID,93.1105,VALID,0,VALID,24.1494,VALID,17,VALID,0.346094,
2009-11-26, 00:53:04,VALID,1001.79,VALID,0,VALID,93.0342,VALID,0,VALID,24.1087,VALID,17,VALID,0.399609,
2009-11-26, 00:54:04,VALID,1001.8,VALID,0,VALID,92.9579,VALID,0,VALID,24.1105,VALID,17,VALID,0.512891,
2009-11-26, 00:55:04,VALID,1001.81,VALID,0,VALID,92.9732,VALID,0,VALID,24.0697,VALID,17,VALID,0.462109,
2009-11-26, 00:56:04,VALID,1001.81,VALID,0,VALID,92.9884,VALID,0.100563,VALID,24.091,VALID,17,VALID,0.293359,
2009-11-26, 00:57:04,VALID,1001.83,VALID,0,VALID,93.0189,VALID,0,VALID,24.1123,VALID,17,VALID,0.148438,
2009-11-26, 00:58:04,VALID,1001.82,VALID,0,VALID,93.0113,VALID,0,VALID,24.091,VALID,17,VALID,0,
2009-11-26, 00:59:04,VALID,1001.82,VALID,0,VALID,93.0418,VALID,0.100563,VALID,24.0716,VALID,17,VALID,0,
2009-11-26, 01:00:04,VALID,1001.82,VALID,0,VALID,93.1029,VALID,0.100563,VALID,24.0521,VALID,17,VALID,0,
2009-11-26, 01:01:04,VALID,1001.83,VALID,0,VALID,93.1715,VALID,0,VALID,24.0521,VALID,17,VALID,0,
2009-11-26, 01:02:04,VALID,1001.83,VALID,0,VALID,93.2249,VALID,0,VALID,24.0308,VALID,17,VALID,0,
2009-11-26, 01:03:04,VALID,1001.82,VALID,0,VALID,93.2325,VALID,0,VALID,24.0095,VALID,17,VALID,0,
2009-11-26, 01:04:04,VALID,1001.85,VALID,0,VALID,93.2402,VALID,0,VALID,24.0326,VALID,17,VALID,0,
2009-11-26, 01:05:04,VALID,1001.79,VALID,0,VALID,93.2783,VALID,0,VALID,24.0114,VALID,17,VALID,0,
2009-11-26, 01:06:04,VALID,1001.76,VALID,0,VALID,93.2936,VALID,0,VALID,24.0132,VALID,17,VALID,0,
2009-11-26, 01:07:04,VALID,1001.76,VALID,0,VALID,93.3317,VALID,0.100563,VALID,23.9937,VALID,17,VALID,0,
2009-11-26, 01:08:04,VALID,1001.78,VALID,0,VALID,93.3622,VALID,0,VALID,23.9937,VALID,17,VALID,0,
2009-11-26, 01:09:04,VALID,1001.72,VALID,0,VALID,93.4156,VALID,0,VALID,23.9742,VALID,17,VALID,0,
2009-11-26, 01:10:04,VALID,1001.72,VALID,0,VALID,93.4538,VALID,0,VALID,23.9742,VALID,17,VALID,0,
2009-11-26, 01:11:04,VALID,1001.7,VALID,0,VALID,93.5072,VALID,0,VALID,23.9742,VALID,17,VALID,0,
2009-11-26, 01:12:04,VALID,1001.73,VALID,0,VALID,93.5606,VALID,0,VALID,23.9742,VALID,17,VALID,0,
2009-11-26, 01:13:04,VALID,1001.73,VALID,0,VALID,93.5911,VALID,0,VALID,23.9566,VALID,17,VALID,0,
2009-11-26, 01:14:04,VALID,1001.73,VALID,0,VALID,93.6369,VALID,0,VALID,23.9761,VALID,17,VALID,0,
2009-11-26, 01:15:04,VALID,1001.75,VALID,0,VALID,93.675,VALID,0,VALID,23.9761,VALID,17,VALID,0,
2009-11-26, 01:16:04,VALID,1001.71,VALID,0,VALID,93.7132,VALID,0,VALID,23.9566,VALID,17,VALID,0,
2009-11-26, 01:17:04,VALID,1001.67,VALID,0,VALID,93.7361,VALID,0,VALID,23.9566,VALID,17,VALID,0,
2009-11-26, 01:18:04,VALID,1001.63,VALID,0,VALID,93.7818,VALID,0,VALID,23.9761,VALID,17,VALID,0,
2009-11-26, 01:19:04,VALID,1001.66,VALID,0,VALID,93.7818,VALID,0,VALID,23.9761,VALID,17,VALID,0,
2009-11-26, 01:20:04,VALID,1001.65,VALID,0,VALID,93.8123,VALID,0,VALID,23.9566,VALID,17,VALID,0,
2009-11-26, 01:21:04,VALID,1001.63,VALID,0,VALID,93.7971,VALID,0,VALID,23.9548,VALID,17,VALID,0,
2009-11-26, 01:22:04,VALID,1001.61,VALID,0,VALID,93.7971,VALID,0,VALID,23.9761,VALID,17,VALID,0,
2009-11-26, 01:23:04,VALID,1001.6,VALID,0,VALID,93.7895,VALID,0,VALID,23.9353,VALID,17,VALID,0,
2009-11-26, 01:24:04,VALID,1001.59,VALID,0,VALID,93.8123,VALID,0,VALID,23.9566,VALID,17,VALID,0,
2009-11-26, 01:25:04,VALID,1001.62,VALID,0,VALID,93.7666,VALID,0,VALID,23.9566,VALID,17,VALID,0,
2009-11-26, 01:26:04,VALID,1001.61,VALID,0,VALID,93.7666,VALID,0,VALID,23.9159,VALID,17,VALID,0,
2009-11-26, 01:27:04,VALID,1001.63,VALID,0,VALID,93.7513,VALID,0,VALID,23.9371,VALID,17,VALID,0,
2009-11-26, 01:28:04,VALID,1001.61,VALID,0,VALID,93.6674,VALID,0,VALID,23.9159,VALID,17,VALID,0,
2009-11-26, 01:29:04,VALID,1001.6,VALID,0,VALID,93.5987,VALID,0.100563,VALID,23.8964,VALID,17,VALID,0,
2009-11-26, 01:30:04,VALID,1001.63,VALID,0,VALID,93.5835,VALID,0.100563,VALID,23.8769,VALID,17,VALID,0,
2009-11-26, 01:31:04,VALID,1001.59,VALID,0,VALID,93.5453,VALID,0.100563,VALID,23.8575,VALID,17,VALID,0,
2009-11-26, 01:32:04,VALID,1001.58,VALID,0,VALID,93.5148,VALID,0.100563,VALID,23.8167,VALID,17,VALID,0,
2009-11-26, 01:33:04,VALID,1001.62,VALID,0,VALID,93.5453,VALID,0,VALID,23.8167,VALID,17,VALID,0,
2009-11-26, 01:34:04,VALID,1001.63,VALID,0,VALID,93.5835,VALID,0,VALID,23.838,VALID,17,VALID,0,
2009-11-26, 01:35:04,VALID,1001.6,VALID,0,VALID,93.553,VALID,0,VALID,23.838,VALID,17,VALID,0,
2009-11-26, 01:36:04,VALID,1001.58,VALID,0,VALID,93.553,VALID,0.100563,VALID,23.838,VALID,17,VALID,0,
2009-11-26, 01:37:04,VALID,1001.58,VALID,0,VALID,93.5682,VALID,0,VALID,23.838,VALID,17,VALID,0,
2009-11-26, 01:38:04,VALID,1001.56,VALID,0,VALID,93.6064,VALID,0,VALID,23.8769,VALID,17,VALID,0,
2009-11-26, 01:39:04,VALID,1001.59,VALID,0,VALID,93.6216,VALID,0,VALID,23.8769,VALID,17,VALID,0,
2009-11-26, 01:40:04,VALID,1001.56,VALID,0,VALID,93.614,VALID,0,VALID,23.8964,VALID,17,VALID,0,
2009-11-26, 01:41:04,VALID,1001.56,VALID,0,VALID,93.6216,VALID,0,VALID,23.8964,VALID,17,VALID,0,
2009-11-26, 01:42:04,VALID,1001.55,VALID,0,VALID,93.6598,VALID,0.100563,VALID,23.8946,VALID,17,VALID,0,
2009-11-26, 01:43:04,VALID,1001.55,VALID,0,VALID,93.6826,VALID,0,VALID,23.9353,VALID,17,VALID,0,
2009-11-26, 01:44:04,VALID,1001.53,VALID,0,VALID,93.614,VALID,0,VALID,23.9371,VALID,4,VALID,0,
2009-11-26, 01:45:04,VALID,1001.5,VALID,0,VALID,93.5453,VALID,0,VALID,23.9159,VALID,3,VALID,0,
2009-11-26, 01:46:04,VALID,1001.52,VALID,0,VALID,93.4919,VALID,0,VALID,23.9177,VALID,3,VALID,0.571875,
2009-11-26, 01:47:04,VALID,1001.51,VALID,0,VALID,93.5377,VALID,0,VALID,23.9371,VALID,3,VALID,0.552734,
2009-11-26, 01:48:04,VALID,1001.52,VALID,0,VALID,93.5835,VALID,0,VALID,23.9177,VALID,2,VALID,0.398047,
2009-11-26, 01:49:04,VALID,1001.54,VALID,0,VALID,93.6292,VALID,0,VALID,23.9371,VALID,2,VALID,0.116797,
2009-11-26, 01:50:04,VALID,1001.52,VALID,0,VALID,93.6598,VALID,0,VALID,23.9177,VALID,2,VALID,0.428906,
2009-11-26, 01:51:04,VALID,1001.54,VALID,0,VALID,93.6674,VALID,0,VALID,23.8982,VALID,2,VALID,0.330078,
2009-11-26, 01:52:04,VALID,1001.51,VALID,0,VALID,93.675,VALID,0,VALID,23.9177,VALID,2,VALID,0.379687,
2009-11-26, 01:53:04,VALID,1001.52,VALID,0,VALID,93.7055,VALID,0,VALID,23.8769,VALID,2,VALID,0.359766,
2009-11-26, 01:54:04,VALID,1001.51,VALID,0,VALID,93.7361,VALID,0,VALID,23.8787,VALID,2,VALID,0.216797,
2009-11-26, 01:55:04,VALID,1001.48,VALID,0,VALID,93.7818,VALID,0,VALID,23.8982,VALID,2,VALID,0.150781,
2009-11-26, 01:56:04,VALID,1001.51,VALID,0,VALID,93.8276,VALID,0,VALID,23.8982,VALID,2,VALID,0.128906,
2009-11-26, 01:57:04,VALID,1001.53,VALID,0,VALID,93.8505,VALID,0,VALID,23.9195,VALID,2,VALID,0.090625,
2009-11-26, 01:58:04,VALID,1001.52,VALID,0,VALID,93.8963,VALID,0,VALID,23.9177,VALID,2,VALID,0,
2009-11-26, 01:59:04,VALID,1001.5,VALID,0,VALID,93.9344,VALID,0,VALID,23.9177,VALID,2,VALID,0,
2009-11-26, 02:00:04,VALID,1001.51,VALID,0,VALID,93.9878,VALID,0,VALID,23.9584,VALID,2,VALID,0,
2009-11-26, 02:01:04,VALID,1001.49,VALID,0,VALID,94.0259,VALID,0,VALID,23.9761,VALID,2,VALID,0,
2009-11-26, 02:02:04,VALID,1001.43,VALID,0,VALID,94.0259,VALID,0,VALID,23.9955,VALID,2,VALID,0,
2009-11-26, 02:03:04,VALID,1001.44,VALID,0,VALID,93.9802,VALID,0,VALID,23.9761,VALID,2,VALID,0,
2009-11-26, 02:04:04,VALID,1001.41,VALID,0,VALID,93.9573,VALID,0,VALID,23.9742,VALID,2,VALID,0,
2009-11-26, 02:05:04,VALID,1001.42,VALID,0,VALID,93.9268,VALID,0,VALID,23.9761,VALID,2,VALID,0,
2009-11-26, 02:06:04,VALID,1001.44,VALID,0,VALID,93.9191,VALID,0,VALID,23.9761,VALID,2,VALID,0,
2009-11-26, 02:07:04,VALID,1001.42,VALID,0,VALID,93.942,VALID,0,VALID,23.9548,VALID,2,VALID,0,
2009-11-26, 02:08:04,VALID,1001.4,VALID,0,VALID,93.9344,VALID,0,VALID,23.9761,VALID,2,VALID,0,
2009-11-26, 02:09:04,VALID,1001.41,VALID,0,VALID,93.9115,VALID,0,VALID,23.9566,VALID,2,VALID,0,
2009-11-26, 02:10:04,VALID,1001.41,VALID,0,VALID,93.9039,VALID,0,VALID,23.9353,VALID,2,VALID,0,
2009-11-26, 02:11:04,VALID,1001.37,VALID,0,VALID,93.9268,VALID,0,VALID,23.9177,VALID,2,VALID,0,
2009-11-26, 02:12:04,VALID,1001.38,VALID,0,VALID,93.9268,VALID,0,VALID,23.8964,VALID,2,VALID,0,
2009-11-26, 02:13:04,VALID,1001.36,VALID,0,VALID,93.9497,VALID,0,VALID,23.8964,VALID,2,VALID,0,
2009-11-26, 02:14:04,VALID,1001.37,VALID,0,VALID,93.9344,VALID,0,VALID,23.9177,VALID,2,VALID,0,
2009-11-26, 02:15:04,VALID,1001.37,VALID,0,VALID,93.9497,VALID,0,VALID,23.9177,VALID,2,VALID,0,
2009-11-26, 02:16:04,VALID,1001.33,VALID,0,VALID,93.9802,VALID,0,VALID,23.9177,VALID,2,VALID,0,
2009-11-26, 02:17:04,VALID,1001.34,VALID,0,VALID,94.0565,VALID,0,VALID,23.9353,VALID,2,VALID,0,
2009-11-26, 02:18:04,VALID,1001.32,VALID,0,VALID,94.0794,VALID,0,VALID,23.9371,VALID,2,VALID,0,
2009-11-26, 02:19:04,VALID,1001.28,VALID,0,VALID,94.0565,VALID,0,VALID,23.9371,VALID,2,VALID,0,
2009-11-26, 02:20:04,VALID,1001.28,VALID,0,VALID,94.0641,VALID,0,VALID,23.9371,VALID,2,VALID,0,
2009-11-26, 02:21:04,VALID,1001.26,VALID,0,VALID,94.1099,VALID,0,VALID,23.9353,VALID,2,VALID,0,
2009-11-26, 02:22:04,VALID,1001.23,VALID,0,VALID,94.1175,VALID,0,VALID,23.9566,VALID,2,VALID,0,
2009-11-26, 02:23:04,VALID,1001.22,VALID,0,VALID,94.1556,VALID,0,VALID,23.9761,VALID,2,VALID,0,
2009-11-26, 02:24:04,VALID,1001.23,VALID,0,VALID,94.1785,VALID,0,VALID,23.9548,VALID,2,VALID,0,
2009-11-26, 02:25:04,VALID,1001.19,VALID,0,VALID,94.2014,VALID,0,VALID,23.9955,VALID,2,VALID,0,
2009-11-26, 02:26:04,VALID,1001.16,VALID,0,VALID,94.2472,VALID,0,VALID,23.9955,VALID,2,VALID,0,
2009-11-26, 02:27:04,VALID,1001.13,VALID,0,VALID,94.2548,VALID,0,VALID,23.9937,VALID,2,VALID,0,
2009-11-26, 02:28:04,VALID,1001.11,VALID,0,VALID,94.2472,VALID,0,VALID,23.9955,VALID,2,VALID,0,
2009-11-26, 02:29:04,VALID,1001.12,VALID,0,VALID,94.2243,VALID,0,VALID,23.9761,VALID,2,VALID,0,
2009-11-26, 02:30:04,VALID,1001.12,VALID,0,VALID,94.2319,VALID,0,VALID,23.9761,VALID,2,VALID,0,
2009-11-26, 02:31:04,VALID,1001.11,VALID,0,VALID,94.2167,VALID,0,VALID,23.9761,VALID,2,VALID,0,
2009-11-26, 02:32:04,VALID,1001.13,VALID,0,VALID,94.2243,VALID,0,VALID,23.9955,VALID,2,VALID,0,
2009-11-26, 02:33:04,VALID,1001.13,VALID,0,VALID,94.209,VALID,0,VALID,23.9548,VALID,2,VALID,0,
2009-11-26, 02:34:04,VALID,1001.14,VALID,0,VALID,94.2319,VALID,0,VALID,23.9761,VALID,2,VALID,0,
2009-11-26, 02:35:04,VALID,1001.14,VALID,0,VALID,94.2167,VALID,0,VALID,23.9566,VALID,2,VALID,0,
2009-11-26, 02:36:04,VALID,1001.17,VALID,0,VALID,94.2167,VALID,0,VALID,23.9566,VALID,2,VALID,0,
2009-11-26, 02:37:04,VALID,1001.2,VALID,0,VALID,94.2319,VALID,0,VALID,23.9371,VALID,2,VALID,0,
2009-11-26, 02:38:04,VALID,1001.2,VALID,0,VALID,94.2853,VALID,0,VALID,23.9548,VALID,2,VALID,0,
2009-11-26, 02:39:04,VALID,1001.22,VALID,0,VALID,94.354,VALID,0,VALID,24.015,VALID,2,VALID,0,
2009-11-26, 02:40:04,VALID,1001.26,VALID,0,VALID,94.4074,VALID,0,VALID,24.0345,VALID,2,VALID,0,
2009-11-26, 02:41:04,VALID,1001.26,VALID,0,VALID,94.4379,VALID,0,VALID,24.0539,VALID,2,VALID,0,
2009-11-26, 02:42:04,VALID,1001.28,VALID,0,VALID,94.3921,VALID,0,VALID,24.015,VALID,2,VALID,0,
2009-11-26, 02:43:04,VALID,1001.26,VALID,0,VALID,94.354,VALID,0,VALID,23.9742,VALID,2,VALID,0.55,
2009-11-26, 02:44:04,VALID,1001.28,VALID,0,VALID,94.3464,VALID,0,VALID,23.9937,VALID,2,VALID,0.576172,
2009-11-26, 02:45:04,VALID,1001.28,VALID,0,VALID,94.3387,VALID,0,VALID,23.9742,VALID,2,VALID,0.499219,
2009-11-26, 02:46:04,VALID,1001.26,VALID,0,VALID,94.3158,VALID,0,VALID,23.9761,VALID,2,VALID,0.305078,
2009-11-26, 02:47:04,VALID,1001.28,VALID,0,VALID,94.3158,VALID,0,VALID,23.9761,VALID,2,VALID,0.491797,
2009-11-26, 02:48:04,VALID,1001.29,VALID,0,VALID,94.3311,VALID,0,VALID,23.9761,VALID,2,VALID,0.421094,
2009-11-26, 02:49:04,VALID,1001.29,VALID,0,VALID,94.3616,VALID,0,VALID,23.9742,VALID,2,VALID,0.349609,
2009-11-26, 02:50:04,VALID,1001.31,VALID,0,VALID,94.3998,VALID,0,VALID,23.9742,VALID,2,VALID,0.163672,
2009-11-26, 02:51:04,VALID,1001.3,VALID,0,VALID,94.415,VALID,0,VALID,23.9955,VALID,2,VALID,0.136328,
2009-11-26, 02:52:04,VALID,1001.32,VALID,0,VALID,94.4455,VALID,0,VALID,24.0132,VALID,2,VALID,0.114453,
2009-11-26, 02:53:04,VALID,1001.34,VALID,0,VALID,94.4684,VALID,0,VALID,24.015,VALID,2,VALID,0,
2009-11-26, 02:54:04,VALID,1001.35,VALID,0,VALID,94.5142,VALID,0,VALID,24.0345,VALID,2,VALID,0.00429688,
2009-11-26, 02:55:04,VALID,1001.36,VALID,0,VALID,94.4837,VALID,0,VALID,24.0345,VALID,2,VALID,0.301562,
2009-11-26, 02:56:04,VALID,1001.36,VALID,0,VALID,94.4913,VALID,0,VALID,24.0345,VALID,2,VALID,0.421875,
2009-11-26, 02:57:04,VALID,1001.35,VALID,0,VALID,94.4608,VALID,0,VALID,24.0345,VALID,2,VALID,0.496875,
2009-11-26, 02:58:04,VALID,1001.34,VALID,0,VALID,94.4761,VALID,0,VALID,24.0539,VALID,2,VALID,0.607813,
2009-11-26, 02:59:04,VALID,1001.34,VALID,0,VALID,94.4837,VALID,0,VALID,24.0521,VALID,2,VALID,0.492969,
2009-11-26, 03:00:04,VALID,1001.36,VALID,0,VALID,94.4913,VALID,0,VALID,24.0326,VALID,2,VALID,0.478906,
2009-11-26, 03:01:04,VALID,1001.31,VALID,0,VALID,94.4608,VALID,0,VALID,24.0326,VALID,2,VALID,0.467187,
2009-11-26, 03:02:04,VALID,1001.31,VALID,0,VALID,94.4761,VALID,0,VALID,24.0132,VALID,2,VALID,0.464453,
2009-11-26, 03:03:04,VALID,1001.32,VALID,0,VALID,94.4608,VALID,0,VALID,24.0345,VALID,2,VALID,0.210938,
2009-11-26, 03:04:04,VALID,1001.34,VALID,0,VALID,94.4684,VALID,0,VALID,24.0326,VALID,2,VALID,0.155859,
2009-11-26, 03:05:04,VALID,1001.34,VALID,0,VALID,94.4684,VALID,0,VALID,24.0345,VALID,2,VALID,0.255078,
2009-11-26, 03:06:04,VALID,1001.37,VALID,0,VALID,94.5142,VALID,0,VALID,24.0521,VALID,2,VALID,0.10625,
2009-11-26, 03:07:04,VALID,1001.33,VALID,0,VALID,94.5523,VALID,0,VALID,24.0734,VALID,2,VALID,0,
2009-11-26, 03:08:04,VALID,1001.33,VALID,0,VALID,94.56,VALID,0,VALID,24.1123,VALID,2,VALID,0.164453,
2009-11-26, 03:09:04,VALID,1001.33,VALID,0,VALID,94.5676,VALID,0,VALID,24.091,VALID,2,VALID,0.181641,
2009-11-26, 03:10:04,VALID,1001.33,VALID,0,VALID,94.56,VALID,0,VALID,24.0697,VALID,2,VALID,0.330078,
2009-11-26, 03:11:04,VALID,1001.31,VALID,0,VALID,94.56,VALID,0,VALID,24.1105,VALID,2,VALID,0.278516,
2009-11-26, 03:12:04,VALID,1001.29,VALID,0,VALID,94.56,VALID,0,VALID,24.091,VALID,2,VALID,0.406641,
2009-11-26, 03:13:04,VALID,1001.32,VALID,0,VALID,94.5447,VALID,0,VALID,24.0892,VALID,2,VALID,0.441797,
2009-11-26, 03:14:04,VALID,1001.37,VALID,0,VALID,94.5447,VALID,0.100563,VALID,24.1105,VALID,2,VALID,0.354688,
2009-11-26, 03:15:04,VALID,1001.38,VALID,0,VALID,94.5676,VALID,0,VALID,24.0892,VALID,2,VALID,0.198437,
2009-11-26, 03:16:04,VALID,1001.44,VALID,0,VALID,94.56,VALID,0,VALID,24.0892,VALID,2,VALID,0,
2009-11-26, 03:17:04,VALID,1001.46,VALID,0,VALID,94.5676,VALID,0,VALID,24.1087,VALID,2,VALID,0,
2009-11-26, 03:18:04,VALID,1001.46,VALID,0,VALID,94.5752,VALID,0.100563,VALID,24.1494,VALID,2,VALID,0,
2009-11-26, 03:19:04,VALID,1001.47,VALID,0,VALID,94.56,VALID,0,VALID,24.1281,VALID,2,VALID,0,
2009-11-26, 03:20:04,VALID,1001.47,VALID,0,VALID,94.5981,VALID,0.100563,VALID,24.13,VALID,2,VALID,0,
2009-11-26, 03:21:04,VALID,1001.47,VALID,0,VALID,94.5523,VALID,0.100563,VALID,24.13,VALID,2,VALID,0,
2009-11-26, 03:22:04,VALID,1001.51,VALID,0,VALID,94.5676,VALID,0.100563,VALID,24.13,VALID,2,VALID,0.160547,
2009-11-26, 03:23:04,VALID,1001.51,VALID,0,VALID,94.5829,VALID,0.100563,VALID,24.1689,VALID,2,VALID,0.144922,
2009-11-26, 03:24:04,VALID,1001.51,VALID,0,VALID,94.5752,VALID,0,VALID,24.1689,VALID,2,VALID,0.196094,
2009-11-26, 03:25:04,VALID,1001.48,VALID,0,VALID,94.5371,VALID,0.100563,VALID,24.1494,VALID,2,VALID,0.285937,
2009-11-26, 03:26:04,VALID,1001.51,VALID,0,VALID,94.5142,VALID,0,VALID,24.1494,VALID,2,VALID,0.473047,
2009-11-26, 03:27:04,VALID,1001.49,VALID,0,VALID,94.4913,VALID,0.100563,VALID,24.1281,VALID,2,VALID,0.548828,
2009-11-26, 03:28:04,VALID,1001.52,VALID,0,VALID,94.415,VALID,0,VALID,24.1123,VALID,2,VALID,0.478906,
2009-11-26, 03:29:04,VALID,1001.51,VALID,0,VALID,94.3616,VALID,0,VALID,24.0929,VALID,2,VALID,0.435937,
2009-11-26, 03:30:04,VALID,1001.53,VALID,0,VALID,94.354,VALID,0,VALID,24.0929,VALID,2,VALID,0.217187,
2009-11-26, 03:31:04,VALID,1001.5,VALID,0,VALID,94.4532,VALID,0,VALID,24.1513,VALID,2,VALID,0.0570313,
2009-11-26, 03:32:04,VALID,1001.51,VALID,0,VALID,94.5295,VALID,0,VALID,24.1902,VALID,2,VALID,0,
2009-11-26, 03:33:04,VALID,1001.53,VALID,0,VALID,94.5981,VALID,0,VALID,24.2291,VALID,2,VALID,0.0808594,
2009-11-26, 03:34:04,VALID,1001.54,VALID,0,VALID,94.6057,VALID,0,VALID,24.2273,VALID,2,VALID,0.270703,
2009-11-26, 03:35:04,VALID,1001.53,VALID,0,VALID,94.5752,VALID,0,VALID,24.2097,VALID,2,VALID,0.275781,
2009-11-26, 03:36:04,VALID,1001.54,VALID,0,VALID,94.5295,VALID,0,VALID,24.1902,VALID,2,VALID,0.469922,
2009-11-26, 03:37:04,VALID,1001.54,VALID,0,VALID,94.4837,VALID,0,VALID,24.1494,VALID,2,VALID,0.465625,
2009-11-26, 03:38:04,VALID,1001.55,VALID,0,VALID,94.4684,VALID,0,VALID,24.1707,VALID,2,VALID,0.381641,
2009-11-26, 03:39:04,VALID,1001.57,VALID,0,VALID,94.4379,VALID,0,VALID,24.1105,VALID,2,VALID,0.467578,
2009-11-26, 03:40:04,VALID,1001.61,VALID,0,VALID,94.4303,VALID,0,VALID,24.1105,VALID,1,VALID,0.553125,
2009-11-26, 03:41:04,VALID,1001.58,VALID,0,VALID,94.4303,VALID,0,VALID,24.13,VALID,360,VALID,0.453125,
2009-11-26, 03:42:04,VALID,1001.59,VALID,0,VALID,94.4837,VALID,0,VALID,24.1707,VALID,358,VALID,0.383984,
2009-11-26, 03:43:04,VALID,1001.58,VALID,0,VALID,94.5218,VALID,0,VALID,24.1494,VALID,358,VALID,0.614453,
2009-11-26, 03:44:04,VALID,1001.6,VALID,0,VALID,94.5142,VALID,0,VALID,24.1707,VALID,358,VALID,0.623828,
2009-11-26, 03:45:04,VALID,1001.62,VALID,0,VALID,94.5371,VALID,0,VALID,24.1513,VALID,358,VALID,0.630469,
2009-11-26, 03:46:04,VALID,1001.66,VALID,0,VALID,94.5295,VALID,0,VALID,24.1513,VALID,358,VALID,0.579297,
2009-11-26, 03:47:04,VALID,1001.65,VALID,0,VALID,94.4913,VALID,0,VALID,24.1105,VALID,358,VALID,0.513281,
2009-11-26, 03:48:04,VALID,1001.64,VALID,0,VALID,94.4913,VALID,0,VALID,24.1123,VALID,358,VALID,0.465234,
2009-11-26, 03:49:04,VALID,1001.64,VALID,0,VALID,94.4837,VALID,0,VALID,24.1123,VALID,358,VALID,0.160547,
2009-11-26, 03:50:04,VALID,1001.65,VALID,0,VALID,94.4761,VALID,0,VALID,24.0697,VALID,358,VALID,0.153516,
2009-11-26, 03:51:04,VALID,1001.67,VALID,0,VALID,94.5142,VALID,0,VALID,24.1123,VALID,358,VALID,0.248047,
2009-11-26, 03:52:04,VALID,1001.66,VALID,0,VALID,94.5371,VALID,0,VALID,24.1105,VALID,358,VALID,0.497656,